Darstellungsparameter: Aktuell verwendete Einstellungen:
Skalierung der Graphiken ... ?
xyx+y,   Skalierungsfaktor:      Skalierung: Modus: x, Faktor: 1
Darstellungszeitraum ... ?
Vom - - bis: - -   Zeitraum: 18.04.2021 - 19.04.2021
Min/Max/Avg-Anzeige ... ?
Zeige MMA aktuell
Zeige MMA Monat
Zeige MMA alles
Zeige --A aktuell
Zeige --A Monat
Zeige --A alles
Keine MMA-Anzeige
MMA:
Average (ber die Originaldaten)
MMA-Basis: 18.04.2021 - 19.04.2021
Quicknavigation für Darstellung... ?
Tage:      1T, 2T, 3T, 5T -1T -2T -3T -5T +1T +2T +3T +5T
Wochen: 1W, 2W, 3W -1W -2W -3W +1W +2W +3W
Monate: 1M, 3M, 6M -1M -3M -6M +1M +3M +6M
Jahre:    1J, 3J, 5J, 10J -1J -3J -5J -10J +1J +3J +5J +10J
Nutze für die Darstellung ... ?
Originaldaten oder Mittelwerte auf ...
Stundenbasis Tagesbasis Wochenbasis
Monatsbasis Jahresbasis      Datenbasis: Original-Daten
Darstellen als:
Statistik (Auto) Statistik J:M      Darstellung:
Zur Graphik,    zurück zur Übersicht aller Sensoren.
 
Tabellarische Datenbersicht: ?
 
Sensor: Nr:Datum:Temp:Abs-Feuchte:Windchill:Wind:
Aussen-T/F 1 18-04-2021 00:00:00 7.6 C 6.04 g/m*3 7.6 C 0 km/h
2 18-04-2021 00:05:00 7.5 C 6 g/m*3 7.5 C 0 km/h
3 18-04-2021 00:10:00 7.5 C 6 g/m*3 7.5 C 0 km/h
4 18-04-2021 00:15:00 7.4 C 5.96 g/m*3 7.4 C 0 km/h
5 18-04-2021 00:20:00 7.4 C 5.96 g/m*3 7.4 C 0 km/h
6 18-04-2021 00:25:00 7.3 C 5.93 g/m*3 7.3 C 0 km/h
7 18-04-2021 00:30:00 7.3 C 5.93 g/m*3 7.3 C 0 km/h
8 18-04-2021 00:35:00 7.3 C 6 g/m*3 7.3 C 0 km/h
9 18-04-2021 00:40:00 7.3 C 6 g/m*3 7.3 C 0 km/h
10 18-04-2021 00:45:00 7.3 C 6 g/m*3 7.3 C 0 km/h
11 18-04-2021 00:50:00 7.3 C 6 g/m*3 7.3 C 0 km/h
12 18-04-2021 00:55:00 7.3 C 6.08 g/m*3 7.3 C 0 km/h
13 18-04-2021 01:00:00 7.3 C 6.08 g/m*3 7.3 C 0 km/h
14 18-04-2021 01:05:00 7.2 C 6.04 g/m*3 7.2 C 0 km/h
15 18-04-2021 01:10:00 7.2 C 6.04 g/m*3 7.2 C 0 km/h
16 18-04-2021 01:15:00 7.2 C 6.04 g/m*3 7.2 C 0 km/h
17 18-04-2021 01:20:00 7.2 C 6.12 g/m*3 7.2 C 0 km/h
18 18-04-2021 01:25:00 7.1 C 6.01 g/m*3 7.1 C 0 km/h
19 18-04-2021 01:30:00 7.1 C 6.08 g/m*3 7.1 C 0 km/h
20 18-04-2021 01:35:00 7.1 C 6.08 g/m*3 7.1 C 0 km/h
21 18-04-2021 01:40:00 7.1 C 6.08 g/m*3 7.1 C 0 km/h
22 18-04-2021 01:45:00 7.1 C 6.08 g/m*3 7.1 C 0 km/h
23 18-04-2021 01:50:00 7.1 C 6.16 g/m*3 7.1 C 0 km/h
24 18-04-2021 01:55:00 7.1 C 6.08 g/m*3 7.1 C 0 km/h
25 18-04-2021 02:00:00 7.1 C 6.16 g/m*3 7.1 C 0 km/h
Sensor: Nr:Datum:Temp:Abs-Feuchte:Windchill:Wind:
Aussen-T/F 26 18-04-2021 02:05:00 7 C 6.04 g/m*3 7 C 0 km/h
27 18-04-2021 02:10:00 7 C 6.04 g/m*3 7 C 0 km/h
28 18-04-2021 02:15:00 7 C 6.12 g/m*3 7 C 0 km/h
29 18-04-2021 02:20:00 7 C 6.12 g/m*3 7 C 0 km/h
30 18-04-2021 02:25:00 6.9 C 6.08 g/m*3 6.9 C 0 km/h
31 18-04-2021 02:30:00 6.8 C 5.97 g/m*3 6.8 C 0 km/h
32 18-04-2021 02:35:00 6.7 C 5.85 g/m*3 6.7 C 0 km/h
33 18-04-2021 02:40:00 6.6 C 5.89 g/m*3 6.6 C 0 km/h
34 18-04-2021 02:45:00 6.4 C 5.81 g/m*3 6.4 C 0 km/h
35 18-04-2021 02:50:00 6.4 C 5.89 g/m*3 6.4 C 0 km/h
36 18-04-2021 02:55:00 6.3 C 5.85 g/m*3 6.3 C 0 km/h
37 18-04-2021 03:00:00 6.3 C 5.92 g/m*3 6.3 C 0 km/h
38 18-04-2021 03:05:00 6.3 C 5.92 g/m*3 6.3 C 0 km/h
39 18-04-2021 03:10:00 6.2 C 5.88 g/m*3 6.2 C 0 km/h
40 18-04-2021 03:15:00 6.2 C 5.81 g/m*3 6.2 C 0 km/h
41 18-04-2021 03:20:00 6.1 C 5.77 g/m*3 6.1 C 0 km/h
42 18-04-2021 03:25:00 6 C 5.81 g/m*3 6 C 0 km/h
43 18-04-2021 03:30:00 6 C 5.88 g/m*3 6 C 0 km/h
44 18-04-2021 03:35:00 6.1 C 5.92 g/m*3 6.1 C 0 km/h
45 18-04-2021 03:40:00 6.1 C 5.99 g/m*3 6.1 C 0 km/h
46 18-04-2021 03:45:00 6.1 C 5.99 g/m*3 6.1 C 0 km/h
47 18-04-2021 03:50:00 6.2 C 6.03 g/m*3 6.2 C 0 km/h
48 18-04-2021 03:55:00 6.2 C 5.96 g/m*3 6.2 C 0 km/h
49 18-04-2021 04:00:00 6.2 C 5.96 g/m*3 6.2 C 0 km/h
50 18-04-2021 04:05:00 6.2 C 5.96 g/m*3 6.2 C 0 km/h
Sensor: Nr:Datum:Temp:Abs-Feuchte:Windchill:Wind:
Aussen-T/F 51 18-04-2021 04:10:00 6.2 C 5.96 g/m*3 6.2 C 0 km/h
52 18-04-2021 04:15:00 6.3 C 6.07 g/m*3 6.3 C 0 km/h
53 18-04-2021 04:20:00 6.3 C 6 g/m*3 6.3 C 0 km/h
54 18-04-2021 04:25:00 6.3 C 6 g/m*3 6.3 C 0 km/h
55 18-04-2021 04:30:00 6.3 C 6 g/m*3 6.3 C 0 km/h
56 18-04-2021 04:35:00 6.3 C 6 g/m*3 6.3 C 0 km/h
57 18-04-2021 04:40:00 6.3 C 5.92 g/m*3 6.3 C 0 km/h
58 18-04-2021 04:45:00 6.4 C 5.96 g/m*3 6.4 C 0 km/h
59 18-04-2021 04:50:00 6.4 C 6.04 g/m*3 6.4 C 0 km/h
60 18-04-2021 04:55:00 6.4 C 5.96 g/m*3 6.4 C 0 km/h
61 18-04-2021 05:00:00 6.5 C 5.92 g/m*3 6.5 C 0 km/h
62 18-04-2021 05:05:00 6.5 C 5.85 g/m*3 6.5 C 0 km/h
63 18-04-2021 05:10:00 6.6 C 5.89 g/m*3 6.6 C 0 km/h
64 18-04-2021 05:15:00 6.6 C 5.96 g/m*3 6.6 C 0 km/h
65 18-04-2021 05:20:00 6.6 C 5.96 g/m*3 6.6 C 0 km/h
66 18-04-2021 05:25:00 6.7 C 6.08 g/m*3 6.7 C 0 km/h
67 18-04-2021 05:30:00 6.7 C 6.08 g/m*3 6.7 C 0 km/h
68 18-04-2021 05:35:00 6.7 C 6.08 g/m*3 6.7 C 0 km/h
69 18-04-2021 05:40:00 6.7 C 6 g/m*3 6.7 C 0 km/h
70 18-04-2021 05:45:00 6.7 C 6 g/m*3 6.7 C 0 km/h
71 18-04-2021 05:50:00 6.7 C 6 g/m*3 6.7 C 0 km/h
72 18-04-2021 05:55:00 6.7 C 5.85 g/m*3 6.7 C 3.2 km/h
73 18-04-2021 06:00:00 6.7 C 6 g/m*3 6.7 C 0 km/h
74 18-04-2021 06:05:00 6.8 C 5.97 g/m*3 6.8 C 1.6 km/h
75 18-04-2021 06:10:00 6.8 C 5.97 g/m*3 6.8 C 1.6 km/h
Sensor: Nr:Datum:Temp:Abs-Feuchte:Windchill:Wind:
Aussen-T/F 76 18-04-2021 06:15:00 6.8 C 6.04 g/m*3 6.8 C 0 km/h
77 18-04-2021 06:20:00 6.8 C 5.89 g/m*3 6.8 C 4.8 km/h
78 18-04-2021 06:25:00 6.8 C 5.89 g/m*3 6.8 C 0 km/h
79 18-04-2021 06:30:00 6.8 C 5.97 g/m*3 6.8 C 0 km/h
80 18-04-2021 06:35:00 6.8 C 5.97 g/m*3 6.8 C 0 km/h
81 18-04-2021 06:40:00 6.8 C 6.04 g/m*3 6.8 C 0 km/h
82 18-04-2021 06:45:00 6.8 C 6.04 g/m*3 6.8 C 0 km/h
83 18-04-2021 06:50:00 6.8 C 6.04 g/m*3 6.8 C 0 km/h
84 18-04-2021 06:55:00 6.7 C 6 g/m*3 6.7 C 0 km/h
85 18-04-2021 07:00:00 6.7 C 6 g/m*3 6.7 C 1.6 km/h
86 18-04-2021 07:05:00 6.7 C 5.93 g/m*3 6.7 C 0 km/h
87 18-04-2021 07:10:00 6.7 C 6 g/m*3 6.7 C 0 km/h
88 18-04-2021 07:15:00 6.7 C 6 g/m*3 6.7 C 0 km/h
89 18-04-2021 07:20:00 6.8 C 5.97 g/m*3 6.8 C 3.2 km/h
90 18-04-2021 07:25:00 6.8 C 5.97 g/m*3 6.8 C 1.6 km/h
91 18-04-2021 07:30:00 6.8 C 5.97 g/m*3 6.8 C 1.6 km/h
92 18-04-2021 07:35:00 6.9 C 6 g/m*3 6.9 C 0 km/h
93 18-04-2021 07:40:00 6.9 C 6 g/m*3 6.9 C 0 km/h
94 18-04-2021 07:45:00 6.9 C 6 g/m*3 6.9 C 0 km/h
95 18-04-2021 07:50:00 7 C 6.04 g/m*3 7 C 0 km/h
96 18-04-2021 07:55:00 7 C 6.04 g/m*3 7 C 4.8 km/h
97 18-04-2021 08:00:00 7 C 6.04 g/m*3 7 C 0 km/h
98 18-04-2021 08:05:00 7.1 C 6.01 g/m*3 7.1 C 4.8 km/h
99 18-04-2021 08:10:00 7.1 C 6.01 g/m*3 7.1 C 0 km/h
100 18-04-2021 08:15:00 7.1 C 6.01 g/m*3 7.1 C 0 km/h
Sensor: Nr:Datum:Temp:Abs-Feuchte:Windchill:Wind:
Aussen-T/F 101 18-04-2021 08:20:00 7.2 C 6.04 g/m*3 7.2 C 0 km/h
102 18-04-2021 08:25:00 7.2 C 6.04 g/m*3 7.2 C 0 km/h
103 18-04-2021 08:30:00 7.3 C 6.08 g/m*3 7.3 C 0 km/h
104 18-04-2021 08:35:00 7.3 C 6.08 g/m*3 7.3 C 0 km/h
105 18-04-2021 08:40:00 7.3 C 6.08 g/m*3 7.3 C 0 km/h
106 18-04-2021 08:45:00 7.4 C 6.2 g/m*3 7.4 C 0 km/h
107 18-04-2021 08:50:00 7.4 C 6.12 g/m*3 7.4 C 0 km/h
108 18-04-2021 08:55:00 7.5 C 6.16 g/m*3 7.5 C 0 km/h
109 18-04-2021 09:00:00 7.6 C 6.12 g/m*3 7.6 C 0 km/h
110 18-04-2021 09:05:00 7.6 C 6.12 g/m*3 7.6 C 0 km/h
111 18-04-2021 09:10:00 7.7 C 6.08 g/m*3 7.7 C 0 km/h
112 18-04-2021 09:15:00 7.7 C 6 g/m*3 7.7 C 0 km/h
113 18-04-2021 09:20:00 7.8 C 6.12 g/m*3 7.8 C 0 km/h
114 18-04-2021 09:25:00 7.8 C 6.12 g/m*3 7.8 C 0 km/h
115 18-04-2021 09:30:00 7.8 C 6.12 g/m*3 7.8 C 0 km/h
116 18-04-2021 09:35:00 7.9 C 6.16 g/m*3 7.9 C 0 km/h
117 18-04-2021 09:40:00 7.9 C 6.16 g/m*3 7.9 C 0 km/h
118 18-04-2021 09:45:00 7.9 C 6.24 g/m*3 7.9 C 0 km/h
119 18-04-2021 09:50:00 7.9 C 6.24 g/m*3 7.9 C 0 km/h
120 18-04-2021 09:55:00 7.9 C 6.24 g/m*3 7.9 C 0 km/h
121 18-04-2021 10:00:00 7.8 C 6.28 g/m*3 7.8 C 0 km/h
122 18-04-2021 10:05:00 7.8 C 6.37 g/m*3 7.8 C 0 km/h
123 18-04-2021 10:10:00 7.8 C 6.45 g/m*3 7.8 C 4.8 km/h
124 18-04-2021 10:15:00 7.8 C 6.37 g/m*3 7.8 C 1.6 km/h
125 18-04-2021 10:20:00 7.8 C 6.37 g/m*3 7.8 C 1.6 km/h
Sensor: Nr:Datum:Temp:Abs-Feuchte:Windchill:Wind:
Aussen-T/F 126 18-04-2021 10:25:00 7.8 C 6.45 g/m*3 7.8 C 0 km/h
127 18-04-2021 10:30:00 7.8 C 6.45 g/m*3 7.8 C 4.8 km/h
128 18-04-2021 10:35:00 7.7 C 6.41 g/m*3 7.7 C 4.8 km/h
129 18-04-2021 10:40:00 7.7 C 6.49 g/m*3 7.7 C 0 km/h
130 18-04-2021 10:45:00 7.7 C 6.57 g/m*3 7.7 C 0 km/h
131 18-04-2021 10:50:00 7.7 C 6.65 g/m*3 7.7 C 0 km/h
132 18-04-2021 10:55:00 7.8 C 6.77 g/m*3 7.8 C 0 km/h
133 18-04-2021 11:00:00 7.8 C 6.69 g/m*3 7.8 C 0 km/h
134 18-04-2021 11:05:00 7.8 C 6.61 g/m*3 7.8 C 0 km/h
135 18-04-2021 11:10:00 7.9 C 6.74 g/m*3 7.9 C 0 km/h
136 18-04-2021 11:15:00 7.9 C 6.74 g/m*3 7.9 C 3.2 km/h
137 18-04-2021 11:20:00 7.9 C 6.74 g/m*3 7.9 C 3.2 km/h
138 18-04-2021 11:25:00 8 C 6.7 g/m*3 8 C 0 km/h
139 18-04-2021 11:30:00 8 C 6.7 g/m*3 8 C 4.8 km/h
140 18-04-2021 11:35:00 8 C 6.7 g/m*3 8 C 3.2 km/h
141 18-04-2021 11:40:00 8 C 6.7 g/m*3 7.06 C 6.4 km/h
142 18-04-2021 11:45:00 8.1 C 6.74 g/m*3 8.1 C 4.8 km/h
143 18-04-2021 11:50:00 8.2 C 6.7 g/m*3 8.2 C 4.8 km/h
144 18-04-2021 11:55:00 8.3 C 6.74 g/m*3 8.3 C 3.2 km/h
145 18-04-2021 12:00:00 8.4 C 6.79 g/m*3 8.4 C 1.6 km/h
146 18-04-2021 12:05:00 8.4 C 6.7 g/m*3 7.52 C 6.4 km/h
147 18-04-2021 12:10:00 8.5 C 6.74 g/m*3 8.5 C 0 km/h
148 18-04-2021 12:15:00 8.6 C 6.7 g/m*3 8.6 C 3.2 km/h
149 18-04-2021 12:20:00 8.6 C 6.7 g/m*3 8.6 C 3.2 km/h
150 18-04-2021 12:25:00 8.7 C 6.75 g/m*3 8.7 C 4.8 km/h
Sensor: Nr:Datum:Temp:Abs-Feuchte:Windchill:Wind:
Aussen-T/F 151 18-04-2021 12:30:00 8.8 C 6.79 g/m*3 8.8 C 3.2 km/h
152 18-04-2021 12:35:00 8.8 C 6.7 g/m*3 8.8 C 1.6 km/h
153 18-04-2021 12:40:00 8.9 C 6.75 g/m*3 8.9 C 4.8 km/h
154 18-04-2021 12:45:00 9.1 C 6.83 g/m*3 9.1 C 3.2 km/h
155 18-04-2021 12:50:00 9.2 C 6.79 g/m*3 9.2 C 0 km/h
156 18-04-2021 12:55:00 9.3 C 6.83 g/m*3 9.3 C 1.6 km/h
157 18-04-2021 13:00:00 9.5 C 6.83 g/m*3 9.5 C 0 km/h
158 18-04-2021 13:05:00 9.7 C 6.91 g/m*3 9.7 C 3.2 km/h
159 18-04-2021 13:10:00 9.8 C 6.87 g/m*3 9.8 C 3.2 km/h
160 18-04-2021 13:15:00 10.1 C 7.09 g/m*3 10.1 C 1.6 km/h
161 18-04-2021 13:20:00 10.3 C 7.09 g/m*3 10.3 C 1.6 km/h
162 18-04-2021 13:25:00 10.6 C 7.12 g/m*3 10.6 C 4.8 km/h
163 18-04-2021 13:30:00 10.7 C 7.07 g/m*3 10.7 C 1.6 km/h
164 18-04-2021 13:35:00 10.8 C 7.12 g/m*3 10.8 C 0 km/h
165 18-04-2021 13:40:00 11 C 7.21 g/m*3 11 C 4.8 km/h
166 18-04-2021 13:45:00 11.1 C 7.15 g/m*3 11.1 C 3.2 km/h
167 18-04-2021 13:50:00 11.2 C 7.2 g/m*3 11.2 C 6.4 km/h
168 18-04-2021 13:55:00 11.3 C 7.24 g/m*3 11.3 C 8.1 km/h
169 18-04-2021 14:00:00 11.5 C 7.33 g/m*3 11.5 C 1.6 km/h
170 18-04-2021 14:05:00 11.7 C 7.32 g/m*3 11.7 C 4.8 km/h
171 18-04-2021 14:10:00 11.8 C 7.37 g/m*3 11.8 C 1.6 km/h
172 18-04-2021 14:15:00 11.9 C 7.2 g/m*3 11.9 C 9.7 km/h
173 18-04-2021 14:20:00 11.8 C 6.95 g/m*3 11.8 C 17.7 km/h
174 18-04-2021 14:25:00 11.8 C 7.05 g/m*3 11.8 C 9.7 km/h
175 18-04-2021 14:30:00 11.9 C 7.1 g/m*3 11.9 C 11.3 km/h
Sensor: Nr:Datum:Temp:Abs-Feuchte:Windchill:Wind:
Aussen-T/F 176 18-04-2021 14:35:00 12 C 7.14 g/m*3 12 C 16.1 km/h
177 18-04-2021 14:40:00 12.1 C 7.08 g/m*3 12.1 C 11.3 km/h
178 18-04-2021 14:45:00 12.2 C 7.23 g/m*3 12.2 C 11.3 km/h
179 18-04-2021 14:50:00 12.4 C 7.1 g/m*3 12.4 C 11.3 km/h
180 18-04-2021 14:55:00 12.4 C 7.1 g/m*3 12.4 C 16.1 km/h
181 18-04-2021 15:00:00 12.3 C 7.06 g/m*3 12.3 C 12.9 km/h
182 18-04-2021 15:05:00 12.2 C 7.01 g/m*3 12.2 C 11.3 km/h
183 18-04-2021 15:10:00 12.1 C 7.08 g/m*3 12.1 C 14.5 km/h
184 18-04-2021 15:15:00 12.1 C 7.18 g/m*3 12.1 C 11.3 km/h
185 18-04-2021 15:20:00 12.1 C 7.08 g/m*3 12.1 C 9.7 km/h
186 18-04-2021 15:25:00 12 C 7.25 g/m*3 12 C 4.8 km/h
187 18-04-2021 15:30:00 12.1 C 7.18 g/m*3 12.1 C 9.7 km/h
188 18-04-2021 15:35:00 12.1 C 7.18 g/m*3 12.1 C 12.9 km/h
189 18-04-2021 15:40:00 12.2 C 7.23 g/m*3 12.2 C 9.7 km/h
190 18-04-2021 15:45:00 12.2 C 7.23 g/m*3 12.2 C 9.7 km/h
191 18-04-2021 15:50:00 12.3 C 7.38 g/m*3 12.3 C 6.4 km/h
192 18-04-2021 15:55:00 12.5 C 7.48 g/m*3 12.5 C 11.3 km/h
193 18-04-2021 16:00:00 12.6 C 7.3 g/m*3 12.6 C 11.3 km/h
194 18-04-2021 16:05:00 12.7 C 7.46 g/m*3 12.7 C 14.5 km/h
195 18-04-2021 16:10:00 12.7 C 7.46 g/m*3 12.7 C 12.9 km/h
196 18-04-2021 16:15:00 12.7 C 7.46 g/m*3 12.7 C 9.7 km/h
197 18-04-2021 16:20:00 12.7 C 7.35 g/m*3 12.7 C 6.4 km/h
198 18-04-2021 16:25:00 12.7 C 7.46 g/m*3 12.7 C 9.7 km/h
199 18-04-2021 16:30:00 12.6 C 7.41 g/m*3 12.6 C 8.1 km/h
200 18-04-2021 16:35:00 12.6 C 7.52 g/m*3 12.6 C 8.1 km/h
Sensor: Nr:Datum:Temp:Abs-Feuchte:Windchill:Wind:
Aussen-T/F 201 18-04-2021 16:40:00 12.6 C 7.52 g/m*3 12.6 C 4.8 km/h
202 18-04-2021 16:45:00 12.5 C 7.37 g/m*3 12.5 C 9.7 km/h
203 18-04-2021 16:50:00 12.5 C 7.48 g/m*3 12.5 C 8.1 km/h
204 18-04-2021 16:55:00 12.5 C 7.59 g/m*3 12.5 C 6.4 km/h
205 18-04-2021 17:00:00 12.6 C 7.52 g/m*3 12.6 C 4.8 km/h
206 18-04-2021 17:05:00 12.6 C 7.41 g/m*3 12.6 C 3.2 km/h
207 18-04-2021 17:10:00 12.7 C 7.46 g/m*3 12.7 C 8.1 km/h
208 18-04-2021 17:15:00 12.7 C 7.57 g/m*3 12.7 C 6.4 km/h
209 18-04-2021 17:20:00 12.7 C 7.57 g/m*3 12.7 C 6.4 km/h
210 18-04-2021 17:25:00 12.7 C 7.46 g/m*3 12.7 C 9.7 km/h
211 18-04-2021 17:30:00 12.8 C 7.62 g/m*3 12.8 C 4.8 km/h
212 18-04-2021 17:35:00 12.9 C 7.55 g/m*3 12.9 C 11.3 km/h
213 18-04-2021 17:40:00 12.9 C 7.66 g/m*3 12.9 C 8.1 km/h
214 18-04-2021 17:45:00 13.3 C 7.86 g/m*3 13.3 C 4.8 km/h
215 18-04-2021 17:50:00 13.6 C 7.53 g/m*3 13.6 C 14.5 km/h
216 18-04-2021 17:55:00 13.4 C 7.56 g/m*3 13.4 C 11.3 km/h
217 18-04-2021 18:00:00 13.2 C 7.35 g/m*3 13.2 C 9.7 km/h
218 18-04-2021 18:05:00 12.9 C 7.33 g/m*3 12.9 C 11.3 km/h
219 18-04-2021 18:10:00 12.8 C 7.39 g/m*3 12.8 C 8.1 km/h
220 18-04-2021 18:15:00 12.7 C 7.35 g/m*3 12.7 C 6.4 km/h
221 18-04-2021 18:20:00 12.7 C 7.35 g/m*3 12.7 C 14.5 km/h
222 18-04-2021 18:25:00 12.7 C 7.46 g/m*3 12.7 C 4.8 km/h
223 18-04-2021 18:30:00 12.6 C 7.3 g/m*3 12.6 C 3.2 km/h
224 18-04-2021 18:35:00 12.6 C 7.41 g/m*3 12.6 C 8.1 km/h
225 18-04-2021 18:40:00 12.5 C 7.48 g/m*3 12.5 C 6.4 km/h
Sensor: Nr:Datum:Temp:Abs-Feuchte:Windchill:Wind:
Aussen-T/F 226 18-04-2021 18:45:00 12.5 C 7.37 g/m*3 12.5 C 4.8 km/h
227 18-04-2021 18:50:00 12.4 C 7.32 g/m*3 12.4 C 8.1 km/h
228 18-04-2021 18:55:00 12.4 C 7.43 g/m*3 12.4 C 4.8 km/h
229 18-04-2021 19:00:00 12.3 C 7.28 g/m*3 12.3 C 4.8 km/h
230 18-04-2021 19:05:00 12.3 C 7.6 g/m*3 12.3 C 0 km/h
231 18-04-2021 19:10:00 12.2 C 7.77 g/m*3 12.2 C 1.6 km/h
232 18-04-2021 19:15:00 12.1 C 7.83 g/m*3 12.1 C 1.6 km/h
233 18-04-2021 19:20:00 11.9 C 7.73 g/m*3 11.9 C 0 km/h
234 18-04-2021 19:25:00 11.8 C 7.79 g/m*3 11.8 C 1.6 km/h
235 18-04-2021 19:30:00 11.7 C 7.84 g/m*3 11.7 C 0 km/h
236 18-04-2021 19:35:00 11.6 C 7.59 g/m*3 11.6 C 4.8 km/h
237 18-04-2021 19:40:00 11.4 C 7.7 g/m*3 11.4 C 1.6 km/h
238 18-04-2021 19:45:00 11.4 C 7.9 g/m*3 11.4 C 1.6 km/h
239 18-04-2021 19:50:00 11.3 C 7.85 g/m*3 11.3 C 6.4 km/h
240 18-04-2021 19:55:00 11.2 C 8.01 g/m*3 11.2 C 3.2 km/h
241 18-04-2021 20:00:00 11 C 8.01 g/m*3 11 C 4.8 km/h
242 18-04-2021 20:05:00 10.8 C 8.01 g/m*3 10.29 C 6.4 km/h
243 18-04-2021 20:10:00 10.7 C 7.96 g/m*3 10.18 C 6.4 km/h
244 18-04-2021 20:15:00 10.6 C 7.91 g/m*3 10.06 C 6.4 km/h
245 18-04-2021 20:20:00 10.4 C 7.81 g/m*3 10.4 C 4.8 km/h
246 18-04-2021 20:25:00 10.3 C 7.76 g/m*3 10.3 C 3.2 km/h
247 18-04-2021 20:30:00 10.3 C 7.76 g/m*3 10.3 C 4.8 km/h
248 18-04-2021 20:35:00 10.2 C 7.8 g/m*3 10.2 C 3.2 km/h
249 18-04-2021 20:40:00 10.1 C 7.75 g/m*3 10.1 C 3.2 km/h
250 18-04-2021 20:45:00 10.1 C 7.75 g/m*3 10.1 C 1.6 km/h
Sensor: Nr:Datum:Temp:Abs-Feuchte:Windchill:Wind:
Aussen-T/F 251 18-04-2021 20:50:00 9.9 C 7.66 g/m*3 9.9 C 0 km/h
252 18-04-2021 20:55:00 9.9 C 7.75 g/m*3 9.9 C 4.8 km/h
253 18-04-2021 21:00:00 9.8 C 7.7 g/m*3 9.8 C 0 km/h
254 18-04-2021 21:05:00 9.7 C 7.65 g/m*3 9.7 C 0 km/h
255 18-04-2021 21:10:00 9.7 C 7.65 g/m*3 9.7 C 0 km/h
256 18-04-2021 21:15:00 9.5 C 7.65 g/m*3 9.5 C 0 km/h
257 18-04-2021 21:20:00 9.4 C 7.6 g/m*3 9.4 C 0 km/h
258 18-04-2021 21:25:00 9.3 C 7.55 g/m*3 9.3 C 0 km/h
259 18-04-2021 21:30:00 9.2 C 7.5 g/m*3 9.2 C 1.6 km/h
260 18-04-2021 21:35:00 9.2 C 7.59 g/m*3 9.2 C 0 km/h
261 18-04-2021 21:40:00 9.1 C 7.54 g/m*3 9.1 C 0 km/h
262 18-04-2021 21:45:00 9.1 C 7.63 g/m*3 9.1 C 0 km/h
263 18-04-2021 21:50:00 9.1 C 7.63 g/m*3 9.1 C 0 km/h
264 18-04-2021 21:55:00 9.1 C 7.63 g/m*3 9.1 C 0 km/h
265 18-04-2021 22:00:00 9.1 C 7.72 g/m*3 9.1 C 0 km/h
266 18-04-2021 22:05:00 9.1 C 7.72 g/m*3 9.1 C 1.6 km/h
267 18-04-2021 22:10:00 9.1 C 7.72 g/m*3 9.1 C 0 km/h
268 18-04-2021 22:15:00 9.1 C 7.72 g/m*3 9.1 C 0 km/h
269 18-04-2021 22:20:00 9.1 C 7.72 g/m*3 9.1 C 0 km/h
270 18-04-2021 22:25:00 9.1 C 7.72 g/m*3 9.1 C 0 km/h
271 18-04-2021 22:30:00 9.1 C 7.72 g/m*3 9.1 C 1.6 km/h
272 18-04-2021 22:35:00 9.1 C 7.72 g/m*3 9.1 C 0 km/h
273 18-04-2021 22:40:00 9.1 C 7.72 g/m*3 9.1 C 0 km/h
274 18-04-2021 22:45:00 9 C 7.67 g/m*3 9 C 0 km/h
275 18-04-2021 22:50:00 8.9 C 7.62 g/m*3 8.9 C 0 km/h
Sensor: Nr:Datum:Temp:Abs-Feuchte:Windchill:Wind:
Aussen-T/F 276 18-04-2021 22:55:00 8.8 C 7.49 g/m*3 8.8 C 0 km/h
277 18-04-2021 23:00:00 8.6 C 7.39 g/m*3 8.6 C 0 km/h
278 18-04-2021 23:05:00 8.4 C 7.3 g/m*3 8.4 C 0 km/h
279 18-04-2021 23:10:00 8.3 C 7.25 g/m*3 8.3 C 0 km/h
280 18-04-2021 23:15:00 8.2 C 7.29 g/m*3 8.2 C 0 km/h
281 18-04-2021 23:20:00 8.1 C 7.24 g/m*3 8.1 C 0 km/h
282 18-04-2021 23:25:00 8.1 C 7.32 g/m*3 8.1 C 4.8 km/h
283 18-04-2021 23:30:00 8.1 C 7.32 g/m*3 8.1 C 0 km/h
284 18-04-2021 23:35:00 8.1 C 7.41 g/m*3 8.1 C 4.8 km/h
285 18-04-2021 23:40:00 8.1 C 7.41 g/m*3 8.1 C 3.2 km/h
286 18-04-2021 23:45:00 8.2 C 7.45 g/m*3 8.2 C 1.6 km/h
287 18-04-2021 23:50:00 8.2 C 7.45 g/m*3 8.2 C 0 km/h
288 18-04-2021 23:55:00 8.2 C 7.45 g/m*3 8.2 C 0 km/h
289 19-04-2021 00:00:00 8.2 C 7.45 g/m*3 8.2 C 0 km/h
290 19-04-2021 00:05:00 8.2 C 7.45 g/m*3 8.2 C 0 km/h
291 19-04-2021 00:10:00 8.2 C 7.45 g/m*3 8.2 C 0 km/h
292 19-04-2021 00:15:00 8.2 C 7.45 g/m*3 8.2 C 0 km/h
293 19-04-2021 00:20:00 8.2 C 7.45 g/m*3 8.2 C 0 km/h
294 19-04-2021 00:25:00 8.2 C 7.45 g/m*3 8.2 C 0 km/h
295 19-04-2021 00:30:00 8.2 C 7.45 g/m*3 8.2 C 0 km/h
296 19-04-2021 00:35:00 8.2 C 7.54 g/m*3 8.2 C 1.6 km/h
297 19-04-2021 00:40:00 8.3 C 7.59 g/m*3 8.3 C 4.8 km/h
298 19-04-2021 00:45:00 8.4 C 7.55 g/m*3 8.4 C 1.6 km/h
299 19-04-2021 00:50:00 8.4 C 7.55 g/m*3 8.4 C 0 km/h
300 19-04-2021 00:55:00 8.4 C 7.55 g/m*3 8.4 C 0 km/h
Sensor: Nr:Datum:Temp:Abs-Feuchte:Windchill:Wind:
Aussen-T/F 301 19-04-2021 01:00:00 8.5 C 7.6 g/m*3 8.5 C 0 km/h
302 19-04-2021 01:05:00 8.5 C 7.6 g/m*3 8.5 C 0 km/h
303 19-04-2021 01:10:00 8.5 C 7.6 g/m*3 8.5 C 0 km/h
304 19-04-2021 01:15:00 8.5 C 7.6 g/m*3 8.5 C 0 km/h
305 19-04-2021 01:20:00 8.5 C 7.6 g/m*3 8.5 C 0 km/h
306 19-04-2021 01:25:00 8.5 C 7.6 g/m*3 8.5 C 0 km/h
307 19-04-2021 01:30:00 8.5 C 7.6 g/m*3 8.5 C 0 km/h
308 19-04-2021 01:35:00 8.5 C 7.6 g/m*3 8.5 C 0 km/h
309 19-04-2021 01:40:00 8.6 C 7.65 g/m*3 8.6 C 0 km/h
310 19-04-2021 01:45:00 8.6 C 7.73 g/m*3 8.6 C 0 km/h
311 19-04-2021 01:50:00 8.6 C 7.73 g/m*3 8.6 C 1.6 km/h
312 19-04-2021 01:55:00 8.6 C 7.73 g/m*3 8.6 C 3.2 km/h
313 19-04-2021 02:00:00 8.6 C 7.82 g/m*3 8.6 C 3.2 km/h
314 19-04-2021 02:05:00 8.6 C 7.82 g/m*3 8.6 C 0 km/h
315 19-04-2021 02:10:00 8.6 C 7.82 g/m*3 8.6 C 0 km/h
316 19-04-2021 02:15:00 8.6 C 7.82 g/m*3 8.6 C 0 km/h
317 19-04-2021 02:20:00 8.6 C 7.91 g/m*3 8.6 C 0 km/h
318 19-04-2021 02:25:00 8.6 C 7.91 g/m*3 8.6 C 1.6 km/h
319 19-04-2021 02:30:00 8.5 C 7.85 g/m*3 8.5 C 1.6 km/h
320 19-04-2021 02:35:00 8.4 C 7.8 g/m*3 8.4 C 1.6 km/h
321 19-04-2021 02:40:00 8.4 C 7.8 g/m*3 8.4 C 0 km/h
322 19-04-2021 02:45:00 8.3 C 7.75 g/m*3 8.3 C 0 km/h
323 19-04-2021 02:50:00 8.3 C 7.75 g/m*3 8.3 C 0 km/h
324 19-04-2021 02:55:00 8.3 C 7.75 g/m*3 8.3 C 0 km/h
325 19-04-2021 03:00:00 8.3 C 7.75 g/m*3 8.3 C 0 km/h
Sensor: Nr:Datum:Temp:Abs-Feuchte:Windchill:Wind:
Aussen-T/F 326 19-04-2021 03:05:00 8.2 C 7.7 g/m*3 8.2 C 0 km/h
327 19-04-2021 03:10:00 8.2 C 7.79 g/m*3 8.2 C 1.6 km/h
328 19-04-2021 03:15:00 8.2 C 7.79 g/m*3 8.2 C 3.2 km/h
329 19-04-2021 03:20:00 8.2 C 7.79 g/m*3 8.2 C 1.6 km/h
330 19-04-2021 03:25:00 8.2 C 7.79 g/m*3 8.2 C 1.6 km/h
331 19-04-2021 03:30:00 8.2 C 7.79 g/m*3 8.2 C 0 km/h
332 19-04-2021 03:35:00 8.2 C 7.79 g/m*3 8.2 C 0 km/h
333 19-04-2021 03:40:00 8.1 C 7.74 g/m*3 8.1 C 0 km/h
334 19-04-2021 03:45:00 8 C 7.69 g/m*3 8 C 0 km/h
335 19-04-2021 03:50:00 7.9 C 7.64 g/m*3 7.9 C 0 km/h
336 19-04-2021 03:55:00 7.9 C 7.64 g/m*3 7.9 C 0 km/h
337 19-04-2021 04:00:00 7.8 C 7.59 g/m*3 7.8 C 0 km/h
338 19-04-2021 04:05:00 7.8 C 7.59 g/m*3 7.8 C 0 km/h
339 19-04-2021 04:10:00 7.8 C 7.59 g/m*3 7.8 C 0 km/h
340 19-04-2021 04:15:00 7.8 C 7.67 g/m*3 7.8 C 0 km/h
341 19-04-2021 04:20:00 7.8 C 7.67 g/m*3 7.8 C 0 km/h
342 19-04-2021 04:25:00 7.8 C 7.67 g/m*3 7.8 C 0 km/h
343 19-04-2021 04:30:00 7.8 C 7.67 g/m*3 7.8 C 0 km/h
344 19-04-2021 04:35:00 7.8 C 7.67 g/m*3 7.8 C 0 km/h
345 19-04-2021 04:40:00 7.8 C 7.67 g/m*3 7.8 C 0 km/h
346 19-04-2021 04:45:00 7.8 C 7.67 g/m*3 7.8 C 0 km/h
347 19-04-2021 04:50:00 7.7 C 7.62 g/m*3 7.7 C 0 km/h
348 19-04-2021 04:55:00 7.7 C 7.62 g/m*3 7.7 C 0 km/h
349 19-04-2021 05:00:00 7.7 C 7.62 g/m*3 7.7 C 0 km/h
350 19-04-2021 05:05:00 7.7 C 7.62 g/m*3 7.7 C 0 km/h
Sensor: Nr:Datum:Temp:Abs-Feuchte:Windchill:Wind:
Aussen-T/F 351 19-04-2021 05:10:00 7.7 C 7.62 g/m*3 7.7 C 0 km/h
352 19-04-2021 05:15:00 7.7 C 7.62 g/m*3 7.7 C 0 km/h
353 19-04-2021 05:20:00 7.7 C 7.62 g/m*3 7.7 C 0 km/h
354 19-04-2021 05:25:00 7.7 C 7.62 g/m*3 7.7 C 0 km/h
355 19-04-2021 05:30:00 7.7 C 7.62 g/m*3 7.7 C 0 km/h
356 19-04-2021 05:35:00 7.7 C 7.62 g/m*3 7.7 C 0 km/h
357 19-04-2021 05:40:00 7.7 C 7.62 g/m*3 7.7 C 0 km/h
358 19-04-2021 05:45:00 7.7 C 7.62 g/m*3 7.7 C 0 km/h
359 19-04-2021 05:50:00 7.7 C 7.62 g/m*3 7.7 C 0 km/h
360 19-04-2021 05:55:00 7.7 C 7.7 g/m*3 7.7 C 0 km/h
361 19-04-2021 06:00:00 7.7 C 7.7 g/m*3 7.7 C 0 km/h
362 19-04-2021 06:05:00 7.7 C 7.62 g/m*3 7.7 C 0 km/h
363 19-04-2021 06:10:00 7.7 C 7.62 g/m*3 7.7 C 0 km/h
364 19-04-2021 06:15:00 7.6 C 7.65 g/m*3 7.6 C 0 km/h
365 19-04-2021 06:20:00 7.6 C 7.57 g/m*3 7.6 C 0 km/h
366 19-04-2021 06:25:00 7.5 C 7.6 g/m*3 7.5 C 0 km/h
367 19-04-2021 06:30:00 7.4 C 7.48 g/m*3 7.4 C 0 km/h
368 19-04-2021 06:35:00 7.4 C 7.48 g/m*3 7.4 C 0 km/h
369 19-04-2021 06:40:00 7.4 C 7.48 g/m*3 7.4 C 0 km/h
370 19-04-2021 06:45:00 7.4 C 7.55 g/m*3 7.4 C 0 km/h
371 19-04-2021 06:50:00 7.4 C 7.55 g/m*3 7.4 C 0 km/h
372 19-04-2021 06:55:00 7.4 C 7.55 g/m*3 7.4 C 0 km/h
373 19-04-2021 07:00:00 7.6 C 7.65 g/m*3 7.6 C 0 km/h
374 19-04-2021 07:05:00 7.6 C 7.65 g/m*3 7.6 C 0 km/h
375 19-04-2021 07:10:00 7.7 C 7.7 g/m*3 7.7 C 0 km/h
Sensor: Nr:Datum:Temp:Abs-Feuchte:Windchill:Wind:
Aussen-T/F 376 19-04-2021 07:15:00 7.7 C 7.7 g/m*3 7.7 C 0 km/h
377 19-04-2021 07:20:00 7.7 C 7.7 g/m*3 7.7 C 0 km/h
378 19-04-2021 07:25:00 7.7 C 7.7 g/m*3 7.7 C 0 km/h
379 19-04-2021 07:30:00 7.8 C 7.75 g/m*3 7.8 C 0 km/h
380 19-04-2021 07:35:00 7.8 C 7.75 g/m*3 7.8 C 0 km/h
381 19-04-2021 07:40:00 7.8 C 7.75 g/m*3 7.8 C 0 km/h
382 19-04-2021 07:45:00 7.9 C 7.8 g/m*3 7.9 C 0 km/h
383 19-04-2021 07:50:00 7.9 C 7.8 g/m*3 7.9 C 0 km/h
384 19-04-2021 07:55:00 7.9 C 7.8 g/m*3 7.9 C 0 km/h
385 19-04-2021 08:00:00 7.9 C 7.8 g/m*3 7.9 C 0 km/h
386 19-04-2021 08:05:00 8 C 7.85 g/m*3 8 C 0 km/h
387 19-04-2021 08:10:00 8.1 C 7.9 g/m*3 8.1 C 0 km/h
388 19-04-2021 08:15:00 8.1 C 7.99 g/m*3 8.1 C 0 km/h
389 19-04-2021 08:20:00 8.2 C 8.04 g/m*3 8.2 C 0 km/h
390 19-04-2021 08:25:00 8.2 C 8.04 g/m*3 8.2 C 0 km/h
391 19-04-2021 08:30:00 8.2 C 8.04 g/m*3 8.2 C 0 km/h
392 19-04-2021 08:35:00 8.2 C 8.04 g/m*3 8.2 C 0 km/h
393 19-04-2021 08:40:00 8.2 C 8.04 g/m*3 8.2 C 0 km/h
394 19-04-2021 08:45:00 8.2 C 8.04 g/m*3 8.2 C 0 km/h
395 19-04-2021 08:50:00 8.2 C 8.04 g/m*3 8.2 C 0 km/h
396 19-04-2021 08:55:00 8.3 C 8.09 g/m*3 8.3 C 0 km/h
397 19-04-2021 09:00:00 8.3 C 8.09 g/m*3 8.3 C 0 km/h
398 19-04-2021 09:05:00 8.3 C 8.09 g/m*3 8.3 C 0 km/h
399 19-04-2021 09:10:00 8.3 C 8.09 g/m*3 8.3 C 0 km/h
400 19-04-2021 09:15:00 8.3 C 8.09 g/m*3 8.3 C 0 km/h
Sensor: Nr:Datum:Temp:Abs-Feuchte:Windchill:Wind:
Aussen-T/F 401 19-04-2021 09:20:00 8.3 C 8.09 g/m*3 8.3 C 0 km/h
402 19-04-2021 09:25:00 8.3 C 8.09 g/m*3 8.3 C 0 km/h
403 19-04-2021 09:30:00 8.3 C 8.09 g/m*3 8.3 C 0 km/h
404 19-04-2021 09:35:00 8.3 C 8.09 g/m*3 8.3 C 0 km/h
405 19-04-2021 09:40:00 8.3 C 8.09 g/m*3 8.3 C 0 km/h
406 19-04-2021 09:45:00 8.3 C 8.09 g/m*3 8.3 C 0 km/h
407 19-04-2021 09:50:00 8.3 C 8.09 g/m*3 8.3 C 0 km/h
408 19-04-2021 09:55:00 8.4 C 8.14 g/m*3 8.4 C 0 km/h
409 19-04-2021 10:00:00 8.4 C 8.14 g/m*3 8.4 C 0 km/h
410 19-04-2021 10:05:00 8.6 C 8.25 g/m*3 8.6 C 0 km/h
411 19-04-2021 10:10:00 8.6 C 8.25 g/m*3 8.6 C 0 km/h
412 19-04-2021 10:15:00 8.7 C 8.3 g/m*3 8.7 C 0 km/h
413 19-04-2021 10:20:00 8.7 C 8.3 g/m*3 8.7 C 0 km/h
414 19-04-2021 10:25:00 8.8 C 8.36 g/m*3 8.8 C 1.6 km/h
415 19-04-2021 10:30:00 8.8 C 8.36 g/m*3 8.8 C 0 km/h
416 19-04-2021 10:35:00 8.8 C 8.27 g/m*3 8.8 C 0 km/h
417 19-04-2021 10:40:00 8.9 C 8.41 g/m*3 8.9 C 0 km/h
418 19-04-2021 10:45:00 9.1 C 8.52 g/m*3 9.1 C 0 km/h
419 19-04-2021 10:50:00 9 C 8.38 g/m*3 9 C 0 km/h
420 19-04-2021 10:55:00 9 C 8.38 g/m*3 9 C 0 km/h
421 19-04-2021 11:00:00 9 C 8.38 g/m*3 9 C 1.6 km/h
422 19-04-2021 11:05:00 9.1 C 8.43 g/m*3 9.1 C 1.6 km/h
423 19-04-2021 11:10:00 9.2 C 8.48 g/m*3 9.2 C 3.2 km/h
424 19-04-2021 11:15:00 9.3 C 8.54 g/m*3 9.3 C 1.6 km/h
425 19-04-2021 11:20:00 9.3 C 8.45 g/m*3 9.3 C 1.6 km/h
Sensor: Nr:Datum:Temp:Abs-Feuchte:Windchill:Wind:
Aussen-T/F 426 19-04-2021 11:25:00 9.5 C 8.56 g/m*3 9.5 C 4.8 km/h
427 19-04-2021 11:30:00 9.7 C 8.67 g/m*3 9.7 C 0 km/h
428 19-04-2021 11:35:00 9.9 C 8.78 g/m*3 9.9 C 1.6 km/h
429 19-04-2021 11:40:00 9.9 C 8.59 g/m*3 9.9 C 4.8 km/h
430 19-04-2021 11:45:00 9.9 C 8.5 g/m*3 9.9 C 3.2 km/h
431 19-04-2021 11:50:00 10.1 C 8.61 g/m*3 10.1 C 3.2 km/h
432 19-04-2021 11:55:00 10.2 C 8.66 g/m*3 10.2 C 1.6 km/h
433 19-04-2021 12:00:00 10.2 C 8.47 g/m*3 10.2 C 3.2 km/h
434 19-04-2021 12:05:00 10.2 C 8.47 g/m*3 10.2 C 3.2 km/h
435 19-04-2021 12:10:00 10.2 C 8.37 g/m*3 10.2 C 3.2 km/h
436 19-04-2021 12:15:00 10.4 C 8.48 g/m*3 9.83 C 6.4 km/h
437 19-04-2021 12:20:00 10.6 C 8.49 g/m*3 10.6 C 4.8 km/h
438 19-04-2021 12:25:00 10.9 C 8.65 g/m*3 10.9 C 3.2 km/h
439 19-04-2021 12:30:00 11.2 C 8.62 g/m*3 11.2 C 4.8 km/h
440 19-04-2021 12:35:00 11.5 C 8.78 g/m*3 11.5 C 4.8 km/h
441 19-04-2021 12:40:00 11.9 C 8.79 g/m*3 11.9 C 8.1 km/h
442 19-04-2021 12:45:00 12.1 C 8.69 g/m*3 12.1 C 6.4 km/h
443 19-04-2021 12:50:00 12.1 C 8.47 g/m*3 12.1 C 4.8 km/h
444 19-04-2021 12:55:00 12 C 8.31 g/m*3 12 C 1.6 km/h
445 19-04-2021 13:00:00 11.9 C 8.15 g/m*3 11.9 C 3.2 km/h
446 19-04-2021 13:05:00 11.8 C 8.21 g/m*3 11.8 C 0 km/h
447 19-04-2021 13:10:00 11.8 C 8.1 g/m*3 11.8 C 4.8 km/h
448 19-04-2021 13:15:00 11.9 C 8.26 g/m*3 11.9 C 3.2 km/h
449 19-04-2021 13:20:00 12.1 C 8.36 g/m*3 12.1 C 6.4 km/h
450 19-04-2021 13:25:00 12.3 C 8.69 g/m*3 12.3 C 6.4 km/h
Sensor: Nr:Datum:Temp:Abs-Feuchte:Windchill:Wind:
Aussen-T/F 451 19-04-2021 13:30:00 12.4 C 8.3 g/m*3 12.4 C 8.1 km/h
452 19-04-2021 13:35:00 12.4 C 8.19 g/m*3 12.4 C 3.2 km/h
453 19-04-2021 13:40:00 12.5 C 8.14 g/m*3 12.5 C 4.8 km/h
454 19-04-2021 13:45:00 12.4 C 8.19 g/m*3 12.4 C 6.4 km/h
455 19-04-2021 13:50:00 12.4 C 8.19 g/m*3 12.4 C 3.2 km/h
456 19-04-2021 13:55:00 12.3 C 8.04 g/m*3 12.3 C 4.8 km/h
457 19-04-2021 14:00:00 12.4 C 8.09 g/m*3 12.4 C 4.8 km/h
458 19-04-2021 14:05:00 12.6 C 8.3 g/m*3 12.6 C 3.2 km/h
459 19-04-2021 14:10:00 12.7 C 8.13 g/m*3 12.7 C 4.8 km/h
460 19-04-2021 14:15:00 12.8 C 7.95 g/m*3 12.8 C 4.8 km/h
461 19-04-2021 14:20:00 12.8 C 7.95 g/m*3 12.8 C 4.8 km/h
462 19-04-2021 14:25:00 12.7 C 7.9 g/m*3 12.7 C 6.4 km/h
463 19-04-2021 14:30:00 12.8 C 7.95 g/m*3 12.8 C 4.8 km/h
464 19-04-2021 14:35:00 12.8 C 7.95 g/m*3 12.8 C 1.6 km/h
465 19-04-2021 14:40:00 12.9 C 7.78 g/m*3 12.9 C 3.2 km/h
466 19-04-2021 14:45:00 13.1 C 7.76 g/m*3 13.1 C 4.8 km/h
467 19-04-2021 14:50:00 13.2 C 7.92 g/m*3 13.2 C 3.2 km/h
468 19-04-2021 14:55:00 13.3 C 7.97 g/m*3 13.3 C 3.2 km/h
469 19-04-2021 15:00:00 13.3 C 7.86 g/m*3 13.3 C 3.2 km/h
470 19-04-2021 15:05:00 13.4 C 7.79 g/m*3 13.4 C 6.4 km/h
471 19-04-2021 15:10:00 13.3 C 7.51 g/m*3 13.3 C 4.8 km/h
472 19-04-2021 15:15:00 13.3 C 7.51 g/m*3 13.3 C 3.2 km/h
473 19-04-2021 15:20:00 13.4 C 7.79 g/m*3 13.4 C 6.4 km/h
474 19-04-2021 15:25:00 13.5 C 7.72 g/m*3 13.5 C 3.2 km/h
475 19-04-2021 15:30:00 13.6 C 7.77 g/m*3 13.6 C 0 km/h
Sensor: Nr:Datum:Temp:Abs-Feuchte:Windchill:Wind:
Aussen-T/F 476 19-04-2021 15:35:00 13.6 C 7.53 g/m*3 13.6 C 8.1 km/h
477 19-04-2021 15:40:00 13.6 C 7.65 g/m*3 13.6 C 0 km/h
478 19-04-2021 15:45:00 13.6 C 7.65 g/m*3 13.6 C 3.2 km/h
479 19-04-2021 15:50:00 13.8 C 7.74 g/m*3 13.8 C 3.2 km/h
480 19-04-2021 15:55:00 14.3 C 7.99 g/m*3 14.3 C 0 km/h
481 19-04-2021 16:00:00 14.9 C 8.03 g/m*3 14.9 C 6.4 km/h
482 19-04-2021 16:05:00 15.2 C 7.66 g/m*3 15.2 C 9.7 km/h
483 19-04-2021 16:10:00 15 C 7.82 g/m*3 15 C 4.8 km/h
484 19-04-2021 16:15:00 14.7 C 7.43 g/m*3 14.7 C 9.7 km/h
485 19-04-2021 16:20:00 14.3 C 7.49 g/m*3 14.3 C 8.1 km/h
486 19-04-2021 16:25:00 14.1 C 7.28 g/m*3 14.1 C 6.4 km/h
487 19-04-2021 16:30:00 13.9 C 7.31 g/m*3 13.9 C 8.1 km/h
488 19-04-2021 16:35:00 13.8 C 7.39 g/m*3 13.8 C 6.4 km/h
489 19-04-2021 16:40:00 13.8 C 7.39 g/m*3 13.8 C 6.4 km/h
490 19-04-2021 16:45:00 13.9 C 7.31 g/m*3 13.9 C 1.6 km/h
491 19-04-2021 16:50:00 14.3 C 7.37 g/m*3 14.3 C 6.4 km/h
492 19-04-2021 16:55:00 14.8 C 7.35 g/m*3 14.8 C 4.8 km/h
493 19-04-2021 17:00:00 15.4 C 7.62 g/m*3 15.4 C 4.8 km/h
494 19-04-2021 17:05:00 15.6 C 7.58 g/m*3 15.6 C 3.2 km/h
495 19-04-2021 17:10:00 15.8 C 7.4 g/m*3 15.8 C 4.8 km/h
496 19-04-2021 17:15:00 16.1 C 7.26 g/m*3 16.1 C 8.1 km/h
497 19-04-2021 17:20:00 16.1 C 7.4 g/m*3 16.1 C 6.4 km/h
498 19-04-2021 17:25:00 16.3 C 7.49 g/m*3 16.3 C 8.1 km/h
499 19-04-2021 17:30:00 16.4 C 7.54 g/m*3 16.4 C 6.4 km/h
500 19-04-2021 17:35:00 16.6 C 7.49 g/m*3 16.6 C 8.1 km/h
Sensor: Nr:Datum:Temp:Abs-Feuchte:Windchill:Wind:
Aussen-T/F 501 19-04-2021 17:40:00 16.7 C 7.67 g/m*3 16.7 C 8.1 km/h
502 19-04-2021 17:45:00 16.8 C 7.58 g/m*3 16.8 C 6.4 km/h
503 19-04-2021 17:50:00 17.1 C 7.57 g/m*3 17.1 C 8.1 km/h
504 19-04-2021 17:55:00 16.9 C 7.34 g/m*3 16.9 C 12.9 km/h
505 19-04-2021 18:00:00 16.6 C 7.06 g/m*3 16.6 C 12.9 km/h
506 19-04-2021 18:05:00 16.3 C 7.35 g/m*3 16.3 C 11.3 km/h
507 19-04-2021 18:10:00 16.2 C 7.31 g/m*3 16.2 C 11.3 km/h
508 19-04-2021 18:15:00 16.3 C 7.35 g/m*3 16.3 C 6.4 km/h
509 19-04-2021 18:20:00 16.3 C 7.21 g/m*3 16.3 C 6.4 km/h
510 19-04-2021 18:25:00 16 C 7.63 g/m*3 16 C 11.3 km/h
511 19-04-2021 18:30:00 15.8 C 7.81 g/m*3 15.8 C 11.3 km/h
512 19-04-2021 18:35:00 15.6 C 7.58 g/m*3 15.6 C 9.7 km/h
513 19-04-2021 18:40:00 15.3 C 7.44 g/m*3 15.3 C 8.1 km/h
514 19-04-2021 18:45:00 15 C 7.44 g/m*3 15 C 6.4 km/h
515 19-04-2021 18:50:00 14.9 C 7.65 g/m*3 14.9 C 4.8 km/h
516 19-04-2021 18:55:00 14.9 C 7.65 g/m*3 14.9 C 9.7 km/h
517 19-04-2021 19:00:00 14.9 C 7.65 g/m*3 14.9 C 8.1 km/h
518 19-04-2021 19:05:00 14.9 C 7.9 g/m*3 14.9 C 3.2 km/h
519 19-04-2021 19:10:00 14.9 C 7.9 g/m*3 14.9 C 9.7 km/h
520 19-04-2021 19:15:00 14.7 C 7.93 g/m*3 14.7 C 4.8 km/h
521 19-04-2021 19:20:00 14.4 C 7.91 g/m*3 14.4 C 8.1 km/h
522 19-04-2021 19:25:00 14.2 C 7.94 g/m*3 14.2 C 6.4 km/h
523 19-04-2021 19:30:00 13.9 C 7.79 g/m*3 13.9 C 6.4 km/h
524 19-04-2021 19:35:00 13.7 C 7.82 g/m*3 13.7 C 0 km/h
525 19-04-2021 19:40:00 13.6 C 7.89 g/m*3 13.6 C 1.6 km/h
Sensor: Nr:Datum:Temp:Abs-Feuchte:Windchill:Wind:
Aussen-T/F 526 19-04-2021 19:45:00 13.4 C 7.9 g/m*3 13.4 C 4.8 km/h
527 19-04-2021 19:50:00 13.3 C 8.09 g/m*3 13.3 C 1.6 km/h
528 19-04-2021 19:55:00 13.1 C 8.22 g/m*3 13.1 C 1.6 km/h
529 19-04-2021 20:00:00 12.8 C 8.29 g/m*3 12.8 C 0 km/h
530 19-04-2021 20:05:00 12.6 C 8.19 g/m*3 12.6 C 3.2 km/h
531 19-04-2021 20:10:00 12.2 C 8.09 g/m*3 12.2 C 0 km/h
532 19-04-2021 20:15:00 11.9 C 8.05 g/m*3 11.9 C 0 km/h
533 19-04-2021 20:20:00 11.6 C 8 g/m*3 11.6 C 4.8 km/h
534 19-04-2021 20:25:00 11.3 C 7.85 g/m*3 11.3 C 3.2 km/h
535 19-04-2021 20:30:00 11.2 C 8.01 g/m*3 11.2 C 6.4 km/h
536 19-04-2021 20:35:00 10.9 C 7.86 g/m*3 10.9 C 3.2 km/h
537 19-04-2021 20:40:00 10.8 C 7.91 g/m*3 10.8 C 4.8 km/h
538 19-04-2021 20:45:00 10.6 C 7.91 g/m*3 10.6 C 3.2 km/h
539 19-04-2021 20:50:00 10.4 C 7.81 g/m*3 10.4 C 4.8 km/h
540 19-04-2021 20:55:00 10.2 C 7.8 g/m*3 10.2 C 4.8 km/h
541 19-04-2021 21:00:00 10.2 C 7.9 g/m*3 10.2 C 4.8 km/h
542 19-04-2021 21:05:00 10.1 C 7.94 g/m*3 10.1 C 3.2 km/h
543 19-04-2021 21:10:00 10 C 7.89 g/m*3 10 C 3.2 km/h
544 19-04-2021 21:15:00 9.9 C 7.94 g/m*3 9.9 C 4.8 km/h
545 19-04-2021 21:20:00 9.8 C 7.89 g/m*3 9.8 C 3.2 km/h
546 19-04-2021 21:25:00 9.8 C 7.89 g/m*3 9.8 C 3.2 km/h
547 19-04-2021 21:30:00 9.8 C 7.89 g/m*3 9.8 C 3.2 km/h
548 19-04-2021 21:35:00 9.7 C 7.93 g/m*3 9.7 C 3.2 km/h
549 19-04-2021 21:40:00 9.7 C 7.93 g/m*3 9.7 C 3.2 km/h
550 19-04-2021 21:45:00 9.6 C 7.88 g/m*3 9.6 C 0 km/h
Sensor: Nr:Datum:Temp:Abs-Feuchte:Windchill:Wind:
Aussen-T/F 551 19-04-2021 21:50:00 9.6 C 7.88 g/m*3 9.6 C 1.6 km/h
552 19-04-2021 21:55:00 9.5 C 7.83 g/m*3 9.5 C 0 km/h
553 19-04-2021 22:00:00 9.4 C 7.78 g/m*3 9.4 C 0 km/h
554 19-04-2021 22:05:00 9.2 C 7.68 g/m*3 9.2 C 0 km/h
555 19-04-2021 22:10:00 9.1 C 7.72 g/m*3 9.1 C 1.6 km/h
556 19-04-2021 22:15:00 9 C 7.58 g/m*3 9 C 0 km/h
557 19-04-2021 22:20:00 8.8 C 7.57 g/m*3 8.8 C 0 km/h
558 19-04-2021 22:25:00 8.7 C 7.52 g/m*3 8.7 C 0 km/h
559 19-04-2021 22:30:00 8.7 C 7.52 g/m*3 8.7 C 0 km/h
560 19-04-2021 22:35:00 8.6 C 7.56 g/m*3 8.6 C 0 km/h
561 19-04-2021 22:40:00 8.5 C 7.51 g/m*3 8.5 C 0 km/h
562 19-04-2021 22:45:00 8.4 C 7.47 g/m*3 8.4 C 0 km/h
563 19-04-2021 22:50:00 8.3 C 7.42 g/m*3 8.3 C 0 km/h
564 19-04-2021 22:55:00 8.2 C 7.37 g/m*3 8.2 C 0 km/h
565 19-04-2021 23:00:00 8.1 C 7.32 g/m*3 8.1 C 1.6 km/h
566 19-04-2021 23:05:00 7.9 C 7.23 g/m*3 7.9 C 0 km/h
567 19-04-2021 23:10:00 7.8 C 7.18 g/m*3 7.8 C 0 km/h
568 19-04-2021 23:15:00 7.8 C 7.18 g/m*3 7.8 C 0 km/h
569 19-04-2021 23:20:00 7.6 C 7.09 g/m*3 7.6 C 0 km/h
570 19-04-2021 23:25:00 7.5 C 7.04 g/m*3 7.5 C 0 km/h
571 19-04-2021 23:30:00 7.3 C 7.03 g/m*3 7.3 C 0 km/h
572 19-04-2021 23:35:00 7.2 C 6.99 g/m*3 7.2 C 0 km/h
573 19-04-2021 23:40:00 7.1 C 6.94 g/m*3 7.1 C 0 km/h
574 19-04-2021 23:45:00 6.9 C 6.85 g/m*3 6.9 C 0 km/h
575 19-04-2021 23:50:00 6.8 C 6.81 g/m*3 6.8 C 0 km/h
Sensor: Nr:Datum:Temp:Abs-Feuchte:Windchill:Wind:
Aussen-T/F 576 19-04-2021 23:55:00 6.7 C 6.76 g/m*3 6.7 C 0 km/h

Legende:
   Min
   Max


Maximal/Minimal-Werte vom 18.04.2021 - 19.04.2021

Sensor Min Max Avg
Temp
(Aussen-T/F)
6 °C
18-04-2021  03:25:00
17.1 °C
19-04-2021  17:50:00
9.62 °C
Abs-Feuchte
(Aussen-T/F)
5.77 g/m*3
18-04-2021  03:20:00
8.79 g/m*3
19-04-2021  12:40:00
7.27 g/m*3
Windchill
(Aussen-T/F)
6 C
18-04-2021  03:25:00
17.1 C
19-04-2021  17:50:00
9.6 C

Die Daten stammen von einer Davis Vantage Pro 2 Wetter-Station und werden unter Linux mit der Software wview2wettercgi und aufbereitet. Alle Angaben erfolgen ohne Gewähr für ihre Vollständigkeit oder Richtigkeit.
Kontakt: Rainer Krienke krienke@uni-koblenz.de . Meine Webseiten an der Uni Koblenz oder privat.
Version: $Revision: 0.78 $